228P/LINEAR (2020)

Japanese version
Home page
Updated on March 3, 2018

---------------------------------------------------------------------

* Profile

* Orbital Elements

Epoch 2020 Mar. 12.0 TT = JDT 2458920.5
T 2020 Mar. 10.71249 TT                                 MPCW
q   3.4358500            (2000.0)            P               Q
n   0.11555897     Peri.  115.30339     -0.82745199     -0.55704871
a   4.1744598      Node    30.98898     +0.45291045     -0.73664145
e   0.1769354      Incl.    7.90955     +0.33195682     -0.38347896
P   8.53
From 214 observations 2001 Dec. 17-2017 Nov. 25, mean residual 0".7.

* Magnitudes Graph

        m1 = 11.5 + 5 log d + 10.0 log r

---------------------------------------------------------------------

The orbital elements are published on M.P.E.C. 2017-X08.
The magnitudes graphs are made with Comet for Windows.

---------------------------------------------------------------------

Copyright(C) Seiichi Yoshida (comet@aerith.net). All rights reserved.